Terminal Aerodrome Forecast
Issued by NWS

Current Version | Previous Version | Graphics & Text | Print | Product List | Glossary On
Versions: 1 2 3 4 5 6 7 8 9 10 11 12 13 14 15 16 17 18 19 20 21 22 23 24 25 26 27 28 29 30 31 32 33 34 35 36 37 38 39 40 41 42 43 44 45
000
FTUS41 KRNK 270528
TAFLWB
TAF
KLWB 270528Z 2706/2806 00000KT P6SM SKC
     FM270730 00000KT 1/4SM FG OVC001
     FM271300 00000KT 4SM BR SCT004
     FM271400 34004KT P6SM SCT250=

USA.gov is the U.S. government's official web portal to all federal, state and local government web resources and services.